sat.trackr.live / text

‹ back to catalog

2025-180B

NORAD 65260 · 2025-180B

PAYLOAD ACTIVE UNKNOWN

§ Identity

Operator
Country
TBD
Launch date
2025-08-19
Launch site
JSC
Launch vehicle
Mass (kg)
RCS (m²)

External: N2YO · Heavens-Above · Gunter

§ Orbital elements

Epoch: 2026-09-20T22:05:59.095104Z

Period
94.98 min
Inclination
97.5388°
Eccentricity
0.0014082
Mean motion
15.16054917 rev/d
Perigee alt
508.1 km
Apogee alt
527.5 km
Semi-major
6,895.9 km
B*
1.1462e-4
RAAN
30.3661°
Arg perigee
358.5072°
Mean anomaly
1.6116°
Rev number
6,016

§ Raw data

2025-180B1 65260U 25180B   26263.92082286  .00002141  00000+0  11462-3 0  99952 65260  97.5388  30.3661 0014082 358.5072   1.6116 15.16054917 60162

JSON: /api/v1/satellites/65260 · /tle

For live sub-satellite position, see the globe view (requires WebGL).

§ Visibility from observer

Set your observer location to see the next 7 days of passes ≥ 10°. The values pass through the URL so the page stays shareable.

No JS? Fill the form by hand. The geolocation button needs JavaScript.